When you browse on this site, cookies collect data to enhance your experience and personalize the content and advertising you see.
Visit our Privacy Policy to learn more. By continuing to use the site, you agree to this use of cookies and data.
  • In Czech Republic
  • List of Countries
  • For 7 days
  • Water Temperature
  • Satellite Maps
  • Weather Map
  • Weather Widgets
  • user-avatar
    Login

    Hourly Weather Ordino

    Today, 18 December, Tuesday

    Time Temperature Precipitation Wind Pressure Humidity
    00:00 0°C° 0 mm 1 mps 637 mmHg 70%
    01:00 -1°C° 0 mm 1 mps 636 mmHg 69%
    02:00 -1°C° 0 mm 1 mps 636 mmHg 69%
    03:00 -1°C° 0 mm 1 mps 635 mmHg 68%
    04:00 -1°C° 0 mm 1 mps 635 mmHg 66%
    05:00 -3°C° 0 mm 2 mps 635 mmHg 64%
    06:00 -1°C° 0 mm 1 mps 634 mmHg 63%
    07:00 0°C° 0 mm 1 mps 635 mmHg 59%
    08:00 -1°C° 0 mm 2 mps 635 mmHg 56%
    09:00 +2°C° 0 mm 2 mps 635 mmHg 52%
    10:00 +3°C° 0 mm 2 mps 635 mmHg 50%
    11:00 +5°C° 0 mm 2 mps 635 mmHg 48%
    12:00 +5°C° 0 mm 3 mps 636 mmHg 46%
    13:00 +5°C° 0 mm 3 mps 635 mmHg 49%
    14:00 +5°C° 0 mm 2 mps 634 mmHg 51%
    15:00 +4°C° 0 mm 2 mps 634 mmHg 53%
    16:00 +3°C° 0 mm 2 mps 633 mmHg 54%
    17:00 +2°C° 0 mm 2 mps 633 mmHg 54%
    18:00 -1°C° 0 mm 2 mps 632 mmHg 54%
    19:00 -1°C° 0 mm 2 mps 632 mmHg 54%
    20:00 -1°C° 0 mm 2 mps 632 mmHg 53%
    21:00 -1°C° 0 mm 2 mps 632 mmHg 53%
    22:00 +2°C° 0 mm 1 mps 633 mmHg 55%
    23:00 +2°C° 0 mm 1 mps 633 mmHg 56%

    Tomorrow, 19 December, Wednesday

    Time Temperature Precipitation Wind Pressure Humidity
    00:00 +2°C° 0 mm 1 mps 633 mmHg 58%
    01:00 +2°C° 0 mm 1 mps 632 mmHg 62%
    02:00 +1°C° 0 mm 1 mps 632 mmHg 66%
    03:00 +1°C° 0 mm 1 mps 631 mmHg 69%
    04:00 +1°C° 0 mm 1 mps 631 mmHg 72%
    05:00 +1°C° 0 mm 1 mps 631 mmHg 75%
    06:00 +1°C° 0 mm 1 mps 631 mmHg 78%
    07:00 +2°C° 0 mm 1 mps 632 mmHg 78%
    08:00 +2°C° 0 mm 1 mps 632 mmHg 77%
    09:00 +3°C° 0 mm 1 mps 633 mmHg 77%
    10:00 +4°C° 0 mm 1 mps 633 mmHg 70%
    11:00 +4°C° 0 mm 2 mps 633 mmHg 64%
    12:00 +5°C° 0 mm 2 mps 633 mmHg 58%
    13:00 +4°C° 0.1 mm 2 mps 633 mmHg 61%
    14:00 +4°C° 0.1 mm 2 mps 633 mmHg 65%
    15:00 +3°C° 0.1 mm 2 mps 633 mmHg 69%
    16:00 +2°C° 0 mm 2 mps 633 mmHg 74%
    17:00 +1°C° 0 mm 2 mps 633 mmHg 80%
    18:00 -2°C° 0 mm 2 mps 633 mmHg 86%
    19:00 -2°C° 0 mm 2 mps 633 mmHg 84%
    20:00 -3°C° 0 mm 2 mps 634 mmHg 83%
    21:00 -3°C° 0 mm 2 mps 634 mmHg 82%
    22:00 -1°C° 0 mm 1 mps 634 mmHg 80%
    23:00 -1°C° 0 mm 1 mps 634 mmHg 78%

    Day after tomorrow, 20 December, Thursday

    Time Temperature Precipitation Wind Pressure Humidity
    00:00 -1°C° 0 mm 1 mps 634 mmHg 75%
    01:00 -1°C° 0 mm 1 mps 634 mmHg 75%
    02:00 -1°C° 0 mm 1 mps 634 mmHg 74%
    03:00 -1°C° 0 mm 1 mps 634 mmHg 73%
    04:00 -1°C° 0 mm 1 mps 635 mmHg 74%
    05:00 -1°C° 0 mm 1 mps 635 mmHg 75%
    06:00 -2°C° 0 mm 1 mps 635 mmHg 77%
    07:00 -1°C° 0 mm 1 mps 636 mmHg 74%
    08:00 0°C° 0 mm 1 mps 636 mmHg 72%
    09:00 +1°C° 0 mm 1 mps 637 mmHg 70%
    10:00 +2°C° 0 mm 1 mps 637 mmHg 63%
    11:00 +4°C° 0 mm 1 mps 638 mmHg 57%
    12:00 +5°C° 0 mm 1 mps 638 mmHg 50%
    13:00 +5°C° 0 mm 1 mps 638 mmHg 54%
    14:00 +5°C° 0 mm 1 mps 638 mmHg 57%
    15:00 +4°C° 0 mm 1 mps 638 mmHg 60%
    16:00 +3°C° 0 mm 1 mps 638 mmHg 66%
    17:00 +1°C° 0 mm 1 mps 637 mmHg 71%
    18:00 0°C° 0 mm 1 mps 637 mmHg 77%
    19:00 0°C° 0 mm 1 mps 638 mmHg 74%
    20:00 0°C° 0 mm 1 mps 638 mmHg 72%
    21:00 0°C° 0 mm 1 mps 638 mmHg 70%
    22:00 0°C° 0 mm 1 mps 638 mmHg 69%
    23:00 0°C° 0 mm 1 mps 638 mmHg 68%

    21 December, Friday

    Time Temperature Precipitation Wind Pressure Humidity
    00:00 -1°C° 0 mm 1 mps 638 mmHg 66%
    01:00 -1°C° 0 mm 1 mps 638 mmHg 67%
    02:00 -1°C° 0 mm 1 mps 638 mmHg 68%
    03:00 -1°C° 0 mm 1 mps 638 mmHg 69%
    04:00 0°C° 0 mm 1 mps 638 mmHg 70%
    05:00 0°C° 0 mm 1 mps 638 mmHg 71%
    06:00 0°C° 0 mm 1 mps 637 mmHg 72%
    07:00 +1°C° 0 mm 1 mps 638 mmHg 68%
    08:00 +2°C° 0 mm 1 mps 639 mmHg 64%
    09:00 +4°C° 0 mm 1 mps 639 mmHg 60%
    10:00 +5°C° 0 mm 1 mps 640 mmHg 56%
    11:00 +7°C° 0 mm 1 mps 640 mmHg 52%
    12:00 +9°C° 0 mm 1 mps 641 mmHg 48%
    13:00 +8°C° 0 mm 1 mps 640 mmHg 52%
    14:00 +8°C° 0 mm 1 mps 640 mmHg 56%
    15:00 +6°C° 0 mm 0 mps 639 mmHg 60%
    16:00 +6°C° 0 mm 1 mps 639 mmHg 61%
    17:00 +5°C° 0 mm 1 mps 639 mmHg 63%
    18:00 +4°C° 0 mm 1 mps 639 mmHg 65%
    19:00 +4°C° 0 mm 1 mps 639 mmHg 63%
    20:00 +4°C° 0 mm 1 mps 639 mmHg 62%
    21:00 +4°C° 0 mm 1 mps 639 mmHg 61%
    22:00 +3°C° 0 mm 1 mps 639 mmHg 61%
    23:00 +3°C° 0 mm 1 mps 639 mmHg 61%

    22 December, Saturday

    Time Temperature Precipitation Wind Pressure Humidity
    00:00 +3°C° 0 mm 1 mps 639 mmHg 61%
    01:00 +3°C° 0 mm 1 mps 638 mmHg 61%
    02:00 +3°C° 0 mm 1 mps 638 mmHg 60%
    03:00 +3°C° 0 mm 1 mps 638 mmHg 60%
    04:00 +3°C° 0 mm 1 mps 638 mmHg 59%
    05:00 +3°C° 0 mm 1 mps 638 mmHg 59%
    06:00 +3°C° 0 mm 1 mps 638 mmHg 58%
    07:00 +4°C° 0 mm 1 mps 639 mmHg 57%
    08:00 +5°C° 0 mm 1 mps 639 mmHg 57%
    09:00 +6°C° 0 mm 1 mps 640 mmHg 56%
    10:00 +8°C° 0 mm 1 mps 640 mmHg 55%
    11:00 +9°C° 0 mm 1 mps 641 mmHg 53%
    12:00 +11°C° 0 mm 1 mps 641 mmHg 52%
    13:00 +10°C° 0 mm 1 mps 641 mmHg 56%
    14:00 +10°C° 0 mm 1 mps 640 mmHg 61%
    15:00 +8°C° 0 mm 0 mps 640 mmHg 65%
    16:00 +7°C° 0 mm 0 mps 640 mmHg 69%
    17:00 +6°C° 0 mm 1 mps 639 mmHg 73%
    18:00 +5°C° 0 mm 1 mps 639 mmHg 78%
    19:00 +4°C° 0 mm 1 mps 639 mmHg 77%
    20:00 +4°C° 0 mm 1 mps 639 mmHg 76%
    21:00 +4°C° 0 mm 1 mps 639 mmHg 76%
    22:00 +4°C° 0 mm 1 mps 639 mmHg 73%
    23:00 +4°C° 0 mm 1 mps 639 mmHg 71%

    23 December, Sunday

    Time Temperature Precipitation Wind Pressure Humidity
    00:00 +4°C° 0 mm 1 mps 639 mmHg 68%
    01:00 +4°C° 0 mm 1 mps 639 mmHg 66%
    02:00 +3°C° 0 mm 1 mps 639 mmHg 64%
    03:00 +3°C° 0 mm 1 mps 638 mmHg 62%
    04:00 +3°C° 0 mm 1 mps 638 mmHg 61%
    05:00 +3°C° 0 mm 1 mps 638 mmHg 59%
    06:00 +3°C° 0 mm 1 mps 638 mmHg 58%
    07:00 +4°C° 0 mm 1 mps 639 mmHg 56%
    08:00 +5°C° 0 mm 1 mps 639 mmHg 55%
    09:00 +6°C° 0 mm 1 mps 640 mmHg 53%
    10:00 +8°C° 0 mm 1 mps 640 mmHg 50%
    11:00 +10°C° 0 mm 1 mps 640 mmHg 48%
    12:00 +12°C° 0 mm 1 mps 641 mmHg 45%
    13:00 +11°C° 0 mm 1 mps 640 mmHg 49%
    14:00 +11°C° 0 mm 1 mps 640 mmHg 53%
    15:00 +10°C° 0 mm 1 mps 639 mmHg 57%
    16:00 +8°C° 0 mm 1 mps 639 mmHg 58%
    17:00 +7°C° 0 mm 1 mps 638 mmHg 60%
    18:00 +5°C° 0 mm 1 mps 638 mmHg 61%
    19:00 +5°C° 0 mm 1 mps 638 mmHg 58%
    20:00 +5°C° 0 mm 1 mps 638 mmHg 54%
    21:00 +5°C° 0 mm 1 mps 638 mmHg 50%
    22:00 +5°C° 0 mm 1 mps 638 mmHg 49%
    23:00 +5°C° 0 mm 1 mps 638 mmHg 48%
    Show more